SCP
0 0 0 0 0 1 1 1 1 1 1 1 1 1 1 1 1 1 1 1 1 1 1 0 0 0 0 0 0 0 0 0 0 0 0 0 0 0 0 0 0 0 0
0 0 0 0 0 1 1 1 1 1 1 1 1 1 1 1 1 1 1 1 1 1 0 0 0 0 0 0 0 0 0 0 0 0 0 0 0 0 0 0 0 0 0
0 0 0 0 1 1 1 1 1 1 1 1 1 1 1 1 1 1 1 1 0 0 0 0 0 0 0 0 0 0 0 0 0 0 0 0 0 0 0 0 0 0 0
1 0 0 0 1 1 1 1 1 1 1 1 1 1 1 1 1 1 0 0 0 0 0 0 0 0 0 0 0 0 0 0 0 0 0 0 0 0 0 0 0 0 0
0 0 0 0 1 1 1 1 1 0 0 0 0 0 0 0 0 0 0 0 0 0 0 0 0 0 0 0 0 0 0 0 0 0 0 0 0 0 0 0 0 0 0
0 0 0 0 0 0 1 0 0 0 0 0 0 0 0 0 0 0 0 0 0 0 0 0 0 0 0 0 0 0 0 0 0 0 0 0 0 0 0 0 0 0 0
0 0 0 0 0 0 0 0 0 0 0 0 0 0 0 0 0 0 0 0 0 0 0 0 0 0 0 0 0 0 0 0 0 0 0 0 0 0 0 0 0 0 0
0 0 0 0 0 0 0 0 0 0 0 0 0 0 0 0 0 0 0 0 0 0 0 0 0 0 0 0 0 0 0 0 0 0 0 0 0 0 0 0 0 0 0
0 0 0 0 0 0 0 0 0 0 0 0 0 0 0 0 0 0 0 0 0 0 0 0 0 0 0 0 0 0 0 0 0 0 0 0 0 0 0 0 0 0 0
0 0 0 0 0 0 0 0 0 0 0 0 0 0 0 0 0 0 0 0 0 0 0 0 0 0 0 0 0 0 0 0 0 0 0 0 0 0 0 0 0 0 0
0 0 0 0 0 0 0 0 0 0 0 0 0 0 0 0 0 0 0 0 0 0 0 0 0 0 0 0 0 0 0 0 0 0 0 0 0 0 0 0 0 0 0
0 0 0 0 0 0 0 0 0 0 0 0 0 0 0 0 0 0 0 0 0 0 0 0 0 0 0 0 0 0 0 0 0 0 0 0 0 0 0 0 0 0 0
0 0 0 0 0 0 0 0 0 0 0 0 0 0 0 0 0 0 0 0 0 0 0 0 0 0 0 0 0 0 0 0 0 0 0 0 0 0 0 0 0 0 0
0 0 0 0 0 0 0 0 0 0 0 0 0 0 0 0 0 0 0 0 0 0 0 0 0 0 0 0 0 0 0 0 0 0 0 0 0 0 0 0 0 0 0
0 0 0 0 0 0 0 0 0 0 0 0 0 0 0 0 0 0 0 0 0 0 0 0 0 0 0 0 0 0 0 0 0 0 0 0 1 1 0 0 0 0 0
0 0 0 0 0 0 0 0 0 0 0 0 0 0 0 0 0 0 0 0 0 0 0 0 0 0 0 0 0 0 0 0 0 0 0 0 1 1 1 1 0 0 0
0 0 0 0 0 0 0 0 0 0 0 0 0 0 0 0 0 0 0 0 0 0 0 0 0 0 0 0 0 0 0 0 0 0 0 0 0 1 1 1 1 0 0
0 0 0 0 0 0 0 0 0 0 0 0 0 0 0 0 0 0 0 0 0 0 0 0 0 0 0 0 0 0 0 0 0 0 0 0 0 0 0 0 0 0 0
0 0 0 0 0 0 0 0 0 0 0 0 0 0 0 0 0 0 0 0 0 0 0 0 0 0 0 0 0 0 0 0 0 0 0 0 0 0 0 0 0 0 0
1 1 1 1 1 1 1 0 0 0 0 0 0 0 0 0 0 0 0 0 0 0 0 0 0 0 0 0 0 0 0 0 0 0 0 0 0 0 0 0 0 0 0
1 1 1 1 1 1 1 1 1 0 0 0 0 0 0 0 0 0 0 0 0 0 0 0 0 0 0 0 0 0 0 0 0 0 0 0 0 0 0 0 0 0 0
1 1 1 1 1 1 1 1 1 1 0 0 0 0 0 0 0 0 0 0 0 0 0 0 0 0 0 0 0 0 0 0 0 0 0 0 0 0 0 0 0 0 0
1 1 1 1 1 1 1 1 1 1 1 0 0 0 0 0 0 0 0 0 0 0 0 0 0 0 0 0 0 0 0 0 0 0 0 0 0 0 0 0 0 0 0
1 1 1 1 1 1 1 1 1 1 1 0 0 0 0 0 0 0 0 0 0 0 0 0 0 0 0 0 0 0 0 0 0 0 0 0 0 0 0 0 0 0 0
1 1 1 1 1 1 1 1 1 1 1 0 0 0 0 0 0 0 0 0 0 0 0 0 0 0 0 0 0 0 0 0 0 0 0 0 0 0 0 0 0 0 0
1 1 1 1 1 1 1 1 1 1 0 0 0 0 0 0 0 0 0 0 0 0 0 0 0 0 0 0 0 0 0 0 0 0 0 0 0 0 0 0 0 0 0
Wind_Speed
8 10 17 17 16 16 17 18 20 20 20 20 20 20 19 18 18 17 16 16 16 16 16 16 16 16 16 16 16 15 15 15 14 14 14 15 14 14 15 15 15 12 16
13 13 17 17 17 17 18 18 19 19 19 19 19 19 18 18 17 16 16 15 15 16 16 15 15 15 15 15 14 14 14 13 13 13 13 14 14 14 14 14 14 10 15
15 13 16 17 17 18 19 19 19 19 19 18 18 17 17 16 16 15 15 15 15 15 15 14 14 14 13 13 13 13 13 12 12 12 11 8 10 14 14 14 14 14 14
16 12 13 17 17 18 19 19 19 19 19 18 17 17 16 15 15 14 14 14 14 14 14 13 13 12 12 11 11 11 11 11 11 11 6 6 8 13 14 14 14 14 14
14 11 13 19 17 18 19 19 19 19 18 17 16 16 15 15 14 13 14 13 13 12 12 12 11 11 10 10 9 9 9 9 11 9 5 5 6 12 13 13 13 13 13
13 11 13 18 17 17 18 18 18 18 17 17 16 15 14 14 13 13 13 12 12 11 11 10 10 9 9 8 7 7 7 8 8 6 6 6 6 11 13 13 13 13 12
12 9 12 16 16 16 17 17 17 17 16 15 15 14 13 12 11 11 11 11 10 10 9 9 8 7 7 7 6 5 5 7 6 6 6 6 6 11 12 12 12 12 12
13 10 11 16 18 17 17 16 16 15 14 14 13 13 12 11 10 9 9 9 8 8 7 7 6 5 5 5 4 3 4 6 6 6 6 6 7 10 11 11 11 10 10
10 10 9 10 13 16 15 15 15 14 13 13 12 12 11 10 10 9 8 8 7 6 6 5 4 4 3 3 2 2 3 5 5 4 6 4 6 9 10 10 9 9 8
9 9 8 7 7 8 9 15 15 14 13 13 13 12 12 11 10 9 7 6 6 5 5 4 3 2 2 2 2 2 3 4 4 4 3 4 7 9 9 9 8 8 7
10 9 8 8 7 7 7 11 12 13 12 12 11 12 9 4 4 5 6 6 6 5 4 3 3 2 1 1 2 3 2 2 4 3 3 5 8 9 9 8 7 7 7
14 12 8 9 9 8 7 6 5 5 6 6 5 6 4 3 3 4 4 7 6 5 4 3 3 1 0 1 2 2 1 3 3 3 3 7 8 9 8 8 7 7 7
13 13 11 10 9 9 5 5 4 3 4 4 5 5 4 3 2 2 1 1 2 2 0 1 1 1 0 1 1 1 2 2 2 2 4 7 8 9 8 8 7 6 6
12 12 12 11 9 8 5 5 5 4 4 4 4 5 4 3 2 2 1 1 1 0 0 0 0 1 0 1 2 2 3 2 2 2 3 7 6 7 8 8 7 6 6
13 12 12 12 10 9 6 6 6 5 5 5 5 5 5 4 3 2 2 1 2 1 1 1 0 0 0 0 1 2 3 3 3 3 2 5 6 6 7 7 7 7 6
14 13 12 12 11 9 7 6 6 5 5 4 4 6 6 4 4 3 2 2 2 2 2 1 1 1 1 1 2 2 2 3 3 3 2 3 5 6 6 6 7 7 7
14 12 12 12 11 10 8 7 5 5 5 4 4 5 6 5 4 4 3 2 2 2 2 2 2 2 2 2 3 3 3 3 3 3 3 2 2 5 6 6 6 6 6
10 11 11 12 11 10 7 6 4 4 5 4 4 4 6 6 6 4 3 3 3 3 3 2 2 2 2 3 3 3 3 3 3 3 3 3 2 2 3 6 6 5 5
11 11 11 10 11 10 8 6 4 4 4 4 4 4 5 6 6 5 3 3 3 3 2 3 2 2 2 3 3 3 3 3 2 2 3 3 3 2 2 3 4 3 4
10 10 11 10 10 9 7 5 4 4 3 2 3 3 4 4 5 5 4 4 4 3 2 2 3 3 2 2 3 4 4 4 3 3 2 3 2 2 2 2 2 0 1
8 10 11 11 10 9 7 6 5 4 3 2 2 3 4 4 5 5 4 4 4 3 4 4 3 3 3 2 3 3 3 5 5 4 3 3 3 3 3 3 1 1 1
8 8 9 10 10 9 7 5 4 5 4 3 2 3 3 4 5 5 5 5 5 4 4 3 3 3 2 2 2 2 1 2 3 4 4 3 3 3 3 3 3 2 2
5 6 6 7 8 9 9 7 6 5 4 3 2 2 3 4 4 4 5 5 5 4 4 3 3 4 3 2 2 2 3 3 1 2 4 4 4 4 3 3 5 5 4
1 4 6 7 8 9 10 10 11 7 5 4 4 4 5 5 5 5 6 6 6 5 5 4 3 3 4 3 2 3 3 2 3 2 1 3 4 5 5 4 5 6 6
4 3 5 7 8 8 8 9 8 7 5 5 6 7 6 6 7 7 7 7 7 6 6 6 5 5 3 3 2 2 3 3 3 2 2 1 2 3 4 4 4 5 6
8 7 6 8 7 8 8 8 8 9 9 8 7 7 6 6 7 8 8 8 8 7 7 7 7 8 6 6 5 3 2 2 2 2 2 1 1 1 3 3 3 4 5
Wind_Direction
154 158 155 151 145 137 128 122 120 120 121 122 123 125 126 126 124 123 122 119 116 113 110 108 107 106 107 107 109 111 112 113 113 116 121 119 113 112 110 109 109 112 115
145 154 153 151 146 140 132 127 124 123 123 123 124 125 126 126 125 124 123 120 118 116 113 112 111 111 110 111 112 115 116 116 115 116 121 124 121 120 118 115 113 114 114
141 150 151 151 148 142 136 131 128 127 126 126 126 127 127 126 126 125 123 121 119 117 116 115 115 114 114 115 117 119 120 119 117 114 112 118 125 127 127 123 119 116 114
141 146 152 152 149 144 139 135 133 132 131 130 130 130 130 129 128 127 125 123 121 119 117 117 118 118 119 120 123 126 127 127 125 121 111 119 128 130 129 126 123 120 118
142 145 155 154 150 145 142 139 137 137 136 135 135 135 134 133 132 130 129 127 125 122 121 121 123 123 122 123 125 129 133 137 137 128 122 117 121 135 133 132 131 127 126
143 148 156 155 151 147 145 143 142 142 141 141 140 139 138 138 136 135 134 133 131 128 126 126 127 126 124 124 128 133 137 139 130 130 134 134 137 144 142 140 137 134 132
145 148 156 155 152 151 149 148 147 146 146 145 144 143 142 141 141 140 140 140 138 136 133 133 134 130 126 126 130 133 136 138 133 137 142 145 152 151 149 146 142 141 138
147 148 155 159 158 156 155 153 151 150 150 148 147 146 146 146 145 145 147 148 148 146 142 141 143 138 129 128 137 144 145 146 139 145 147 152 158 155 152 149 147 143 138
145 149 153 160 163 162 159 157 155 154 153 151 151 151 152 153 154 157 158 160 161 160 157 156 160 152 139 135 149 168 162 153 133 146 152 154 163 161 154 152 149 144 140
148 155 156 155 154 156 159 164 162 160 158 157 158 160 162 165 167 171 171 176 178 181 181 180 184 182 166 165 194 208 188 147 140 147 144 163 169 165 157 154 151 147 144
161 165 162 156 152 152 156 169 166 166 164 164 166 169 165 160 166 176 185 194 199 205 210 212 217 223 222 236 239 228 183 146 152 152 153 171 172 168 160 156 153 150 148
174 176 172 165 161 158 165 159 153 157 159 158 158 163 150 148 168 181 202 211 218 223 233 241 245 259 315 328 282 235 163 172 170 165 175 178 175 171 163 160 158 158 156
176 177 178 173 168 166 160 152 153 148 152 154 158 154 145 145 157 170 147 245 255 251 271 358 2 14 24 237 247 214 197 187 179 171 181 179 176 171 165 162 163 163 161
174 182 180 178 173 171 159 159 160 159 162 163 162 156 151 154 169 177 180 207 222 173 165 87 9 323 290 252 229 209 195 191 178 170 181 175 172 170 164 160 158 156 152
179 181 182 182 179 174 163 165 171 173 173 170 166 168 165 168 181 192 199 202 212 191 185 203 233 266 43 161 188 189 184 181 170 160 168 174 165 162 163 163 159 155 149
186 184 180 183 182 176 174 172 172 176 173 170 176 178 175 173 179 188 199 199 204 192 185 175 162 136 93 98 90 106 125 135 138 138 135 151 152 155 160 163 156 148 144
187 182 181 183 182 181 179 177 170 173 170 178 181 181 182 178 181 184 189 193 190 164 148 127 112 97 93 86 81 81 85 94 115 119 114 106 127 141 143 143 141 142 143
182 180 182 185 182 184 181 175 168 167 173 183 178 181 186 181 178 176 178 186 168 145 140 138 121 95 80 81 74 63 66 73 81 98 96 92 88 95 123 131 133 141 147
182 179 180 183 178 181 177 165 159 156 170 174 169 176 181 178 175 168 169 165 147 137 137 141 110 111 108 99 87 61 48 54 54 84 90 82 67 65 69 111 128 150 170
179 179 180 180 174 170 166 153 147 142 148 152 160 167 160 163 163 154 150 146 140 133 124 119 110 81 87 100 91 63 39 38 36 37 55 62 55 55 58 61 66 12 226
178 182 182 178 174 168 170 169 161 156 137 129 124 137 143 147 149 146 147 138 137 139 140 132 112 96 70 54 85 60 31 37 43 30 32 47 50 48 50 49 40 27 332
182 184 183 178 171 173 173 158 135 124 117 106 89 81 101 134 142 145 145 140 134 128 124 125 124 118 84 41 116 127 119 26 26 30 36 47 45 44 44 42 35 26 359
171 177 179 173 167 165 153 132 121 107 103 110 102 86 63 79 94 111 122 122 118 119 125 116 117 127 127 72 41 142 159 183 116 31 31 39 41 43 37 39 45 37 29
153 157 155 155 154 152 150 154 153 152 154 145 131 108 85 73 80 89 97 100 97 95 99 93 85 102 122 126 75 46 64 111 142 131 37 24 40 47 44 46 47 44 38
42 98 128 132 133 140 147 153 146 136 128 117 112 106 89 73 66 72 82 87 86 83 83 80 79 76 80 103 108 97 75 61 61 122 136 24 35 37 41 43 50 46 35
42 62 89 105 110 121 126 128 130 131 128 126 120 113 97 82 72 68 74 77 79 81 80 79 78 77 77 79 76 71 86 87 75 84 109 87 19 18 24 36 48 46 34